Pauls Valley, OK

7:19 AM CDT on October 21, 2017 (GMT -0500)
Pauls Valley Municipal

Weather History for KPVJ - October, 2013

Change the Weather History Date:

Saturday, October 5, 2013

  Actual Average (KADH) Record (KADH)
Temperature  
Mean Temperature 64 °F -  
Max Temperature 77 °F 79 °F 97 °F (1937)
Min Temperature 50 °F 54 °F 37 °F (1932)
Degree Days  
Heating Degree Days 2    
Growing Degree Days 14 (Base 50)    
Moisture  
Dew Point 43 °F    
Average Humidity 61    
Maximum Humidity 94    
Minimum Humidity 33    
Precipitation  
Precipitation 0.03 in - - ()
Sea Level Pressure  
Sea Level Pressure 30.05 in    
Wind  
Wind Speed 11 mph (NNW)    
Max Wind Speed 28 mph    
Max Gust Speed 36 mph    
Visibility 10 miles    
Events Rain , Thunderstorm    
Averages and records for this station are not official NWS values.
T = Trace of Precipitation, MM = Missing Value Source: NWS Daily Summary

Daily Weather History Graph

Daily Weather History Graph

Search for Another Location

Airport or City:

Trip Planner

Search our weather history database for the weather conditions in past years. The results will help you decide how hot, cold, wet, or windy it might be!

Date:

Astronomy

Oct. 05, 2013 Rise Set
Actual Time 7:26 AM CDT 7:07 PM CDT
Civil Twilight 7:01 AM CDT 7:32 PM CDT
Nautical Twilight 6:32 AM CDT 8:01 PM CDT
Astronomical Twilight 6:03 AM CDT 8:30 PM CDT
Moon 8:04 AM CDT (10/5) 7:30 PM CDT (10/5)
Length of Visible Light 12h 30m
Length of Day
11h 40m
New Moon, 1% of the Moon is Illuminated
Oct 5
New Moon
Oct 11
First Quarter
Oct 18
Full
Oct 26
Last Quarter
Nov 3
New

Hourly Weather History & Observations

Time (CDT) Temp. Dew Point Humidity Pressure Visibility Wind Dir Wind Speed Gust Speed Precip Events Conditions
12:15 AM 77.0 °F 64.4 °F 65% 29.84 in 10.0 mi South 12.7 mph 19.6 mph N/A   Unknown
12:35 AM 77.0 °F 64.4 °F 65% 29.85 in 10.0 mi SSE 9.2 mph - N/A   Unknown
12:55 AM 77.0 °F 64.4 °F 65% 29.90 in 10.0 mi WNW 5.8 mph - N/A   Unknown
1:15 AM 77.0 °F 64.4 °F 65% 29.90 in 10.0 mi West 6.9 mph - N/A   Unknown
1:35 AM 73.4 °F 64.4 °F 73% 29.92 in 10.0 mi NNW 6.9 mph 17.3 mph N/A   Unknown
1:55 AM 71.6 °F 62.6 °F 73% 29.91 in 10.0 mi NNW 9.2 mph - N/A Thunderstorm Unknown
2:15 AM 71.6 °F 62.6 °F 73% 29.92 in 10.0 mi NW 10.4 mph - N/A   Unknown
2:35 AM 69.8 °F 62.6 °F 78% 29.94 in 10.0 mi NW 27.6 mph 35.7 mph N/A   Unknown
2:55 AM 62.6 °F 57.2 °F 82% 29.94 in 10.0 mi North 15.0 mph 23.0 mph N/A Thunderstorm Unknown
3:15 AM 60.8 °F 53.6 °F 77% 29.98 in 10.0 mi NNW 27.6 mph 34.5 mph N/A   Unknown
3:35 AM 57.2 °F 51.8 °F 82% 29.96 in 10.0 mi North 21.9 mph 29.9 mph N/A   Light Drizzle
3:55 AM 55.4 °F 50.0 °F 82% 29.96 in 10.0 mi NNW 16.1 mph 19.6 mph N/A   Unknown
4:15 AM 53.6 °F 50.0 °F 88% 29.98 in 10.0 mi NNW 19.6 mph - N/A Rain Rain
4:35 AM 51.8 °F 50.0 °F 94% 29.98 in 10.0 mi North 19.6 mph 26.5 mph N/A Thunderstorm Unknown
4:55 AM 51.8 °F 48.2 °F 88% 30.00 in 10.0 mi North 13.8 mph 26.5 mph N/A Thunderstorm Unknown
5:15 AM 51.8 °F 46.4 °F 82% 30.00 in 10.0 mi North 15.0 mph 24.2 mph N/A Rain Light Rain
5:35 AM 51.8 °F 44.6 °F 76% 30.01 in 10.0 mi North 16.1 mph 25.3 mph N/A   Unknown
5:55 AM 51.8 °F 42.8 °F 71% 30.01 in 10.0 mi North 12.7 mph - N/A   Unknown
6:15 AM 51.8 °F 44.6 °F 76% 30.01 in 10.0 mi North 12.7 mph 18.4 mph N/A Rain , Thunderstorm Light Thunderstorms and Rain
6:35 AM 51.8 °F 42.8 °F 71% 30.02 in 10.0 mi North 15.0 mph 23.0 mph N/A Thunderstorm Unknown
6:55 AM 51.8 °F 42.8 °F 71% 30.04 in 10.0 mi NNW 15.0 mph - N/A Thunderstorm Unknown
7:15 AM 50.0 °F 42.8 °F 76% 30.04 in 10.0 mi North 13.8 mph 21.9 mph N/A Rain Light Rain
7:35 AM 51.8 °F 41.0 °F 67% 30.05 in 10.0 mi North 12.7 mph 17.3 mph N/A   Unknown
7:55 AM 51.8 °F 41.0 °F 67% 30.07 in 10.0 mi North 12.7 mph 18.4 mph N/A Rain Light Rain
8:15 AM 51.8 °F 41.0 °F 67% 30.08 in 10.0 mi North 16.1 mph - N/A   Unknown
8:35 AM 51.8 °F 37.4 °F 58% 30.09 in 10.0 mi North 16.1 mph 23.0 mph N/A   Unknown
8:55 AM 51.8 °F 37.4 °F 58% 30.09 in 10.0 mi North 16.1 mph 21.9 mph N/A Rain Light Rain
9:15 AM 51.8 °F 37.4 °F 58% 30.11 in 10.0 mi North 15.0 mph 23.0 mph N/A   Unknown
9:35 AM 51.8 °F 37.4 °F 58% 30.11 in 10.0 mi North 16.1 mph 23.0 mph N/A   Unknown
9:55 AM 51.8 °F 35.6 °F 54% 30.13 in 10.0 mi North 16.1 mph 20.7 mph N/A Thunderstorm Thunderstorm
10:15 AM 51.8 °F 37.4 °F 58% 30.12 in 10.0 mi North 15.0 mph 20.7 mph N/A   Unknown
10:35 AM 51.8 °F 37.4 °F 58% 30.12 in 10.0 mi NNW 13.8 mph 19.6 mph N/A   Unknown
10:55 AM 51.8 °F 37.4 °F 58% 30.12 in 10.0 mi North 12.7 mph 18.4 mph N/A Rain Light Rain
11:15 AM 51.8 °F 37.4 °F 58% 30.14 in 10.0 mi NNW 12.7 mph - N/A Rain Light Rain
11:35 AM 50.0 °F 41.0 °F 71% 30.11 in 5.0 mi North 8.1 mph - 0.03 in Rain , Thunderstorm Light Thunderstorms and Rain
11:55 AM 51.8 °F 42.8 °F 71% 30.13 in 10.0 mi North 6.9 mph - 0.03 in   Unknown
12:15 PM 51.8 °F 41.0 °F 67% 30.13 in 10.0 mi NNE 5.8 mph - N/A   Unknown
12:35 PM 53.6 °F 42.8 °F 67% 30.12 in 10.0 mi North 8.1 mph - N/A   Unknown
12:55 PM 55.4 °F 41.0 °F 58% 30.11 in 10.0 mi North 9.2 mph - N/A Thunderstorm Unknown
1:15 PM 55.4 °F 41.0 °F 58% 30.11 in 10.0 mi North 4.6 mph - N/A Thunderstorm Unknown
1:35 PM 59.0 °F 41.0 °F 51% 30.09 in 10.0 mi North 6.9 mph - N/A   Unknown
1:55 PM 62.6 °F 39.2 °F 42% 30.08 in 10.0 mi NNW 12.7 mph 20.7 mph N/A   Unknown
2:15 PM 60.8 °F 39.2 °F 45% 30.08 in 10.0 mi North 6.9 mph - N/A   Unknown
2:35 PM 64.4 °F 39.2 °F 40% 30.06 in 10.0 mi North 8.1 mph 16.1 mph N/A   Unknown
2:55 PM 64.4 °F 37.4 °F 37% 30.06 in 10.0 mi North 9.2 mph 16.1 mph N/A   Unknown
3:15 PM 66.2 °F 37.4 °F 35% 30.06 in 10.0 mi NNW 10.4 mph - N/A Thunderstorm Unknown
3:35 PM 68.0 °F 37.4 °F 33% 30.06 in 10.0 mi North 9.2 mph 17.3 mph N/A   Unknown
3:55 PM 68.0 °F 37.4 °F 33% 30.06 in 10.0 mi North 10.4 mph 18.4 mph N/A Thunderstorm Unknown
4:15 PM 68.0 °F 37.4 °F 33% 30.05 in 10.0 mi North 12.7 mph 18.4 mph N/A   Unknown
4:35 PM 66.2 °F 37.4 °F 35% 30.04 in 10.0 mi NW 12.7 mph - N/A   Unknown
4:55 PM 68.0 °F 37.4 °F 33% 30.04 in 10.0 mi NNW 15.0 mph - N/A   Unknown
5:15 PM 64.4 °F 37.4 °F 37% 30.04 in 10.0 mi NNW 11.5 mph 17.3 mph N/A   Unknown
5:35 PM 64.4 °F 35.6 °F 34% 30.05 in 10.0 mi NW 13.8 mph - N/A   Unknown
5:55 PM 64.4 °F 35.6 °F 34% 30.05 in 10.0 mi North 13.8 mph - N/A   Unknown
6:15 PM 62.6 °F 35.6 °F 37% 30.06 in 10.0 mi North 10.4 mph - N/A   Unknown
6:35 PM 62.6 °F 35.6 °F 37% 30.07 in 10.0 mi NNW 10.4 mph - N/A   Unknown
6:55 PM 60.8 °F 35.6 °F 39% 30.08 in 10.0 mi NNW 8.1 mph - N/A   Unknown
7:15 PM 59.0 °F 37.4 °F 45% 30.08 in 10.0 mi NNW 4.6 mph - N/A   Unknown
7:35 PM 57.2 °F 37.4 °F 48% 30.08 in 10.0 mi NW 3.5 mph - N/A   Unknown
7:55 PM 55.4 °F 39.2 °F 54% 30.08 in 10.0 mi NW 4.6 mph - N/A   Unknown
8:15 PM 55.4 °F 41.0 °F 58% 30.08 in 10.0 mi Calm Calm - N/A   Unknown
8:35 PM 55.4 °F 41.0 °F 58% 30.09 in 10.0 mi Calm Calm - N/A   Unknown
8:55 PM 53.6 °F 41.0 °F 62% 30.09 in 10.0 mi WNW 3.5 mph - N/A   Unknown
9:15 PM 51.8 °F 42.8 °F 71% 30.09 in 10.0 mi Calm Calm - N/A   Unknown
9:35 PM 51.8 °F 41.0 °F 67% 30.10 in 10.0 mi Calm Calm - N/A   Unknown
9:55 PM 51.8 °F 41.0 °F 67% 30.10 in 10.0 mi Calm Calm - N/A   Unknown
10:15 PM 51.8 °F 41.0 °F 67% 30.10 in 10.0 mi West 3.5 mph - N/A   Unknown
10:35 PM 50.0 °F 41.0 °F 71% 30.10 in 10.0 mi Calm Calm - N/A   Unknown
10:55 PM 50.0 °F 41.0 °F 71% 30.09 in 10.0 mi West 4.6 mph - N/A   Unknown
11:15 PM 50.0 °F 39.2 °F 66% 30.09 in 10.0 mi West 3.5 mph - N/A   Unknown
11:35 PM 50.0 °F 41.0 °F 71% 30.09 in 10.0 mi Calm Calm - N/A   Unknown
11:55 PM 50.0 °F 41.0 °F 71% 30.09 in 10.0 mi Calm Calm - N/A   Unknown